www.pogodaiklimat.ru

ПОГОДА в Уналашке, AK

  • Прогноз погоды в Уналашке
  • Монитор погоды в Уналашке
  • Климат в Уналашке

АРХИВ ПОГОДЫ в Уналашке

Время (UTC), дата Ветер
(напр.,м/с)
 
Видим.   Явления Облачность Т
(С)
Тd
(С)
f
(%)
Тe
(С)
Тes
(С)
Комфортность

P
(гПа)

Po
(гПа)
Тmin
(С)
Tmax
(С)
R
(мм)
SD
(см)
07:56 25.03 ЮВ  9
{16} 
8 км  слабый дождь  10/10 810 м  +7.2  +4.4  82  +1  +1    1001.7  1000.4      0.3   
08:36 25.03 ЮВ  10
{14} 
10 км  слабый дождь  10/10 660 м  +7.0  +4.0  81  +1  +1      998.7         
08:56 25.03 ЮВ  9
{16} 
8 км  слабый дождь  10/10 720 м  +7.2  +4.4  82  +1  +1    999.8  998.4         
09:34 25.03 ЮВ  12
{17} 
6 км  слабый дождь  10/10 660 м  +7.0  +4.0  81  +1  +1      997.7         
09:46 25.03 ЮВ  11
{18} 
6 км  мгла  10/10 720 м  +7.0  +4.0  81  +1  +1      997.4         
09:56 25.03 ЮВ  11
{19} 
6 км  мгла  10/10 720 м  +7.8  +4.4  79  +2  +2    998.9  997.7         
10:04 25.03 ЮВ  13
{16} 
6 км  слабый дождь  10/10 720 м  +7.0  +4.0  81  0  0      997.7         
10:56 25.03 ЮВ  9
{15} 
14 км  слабый дождь  10/10 570 м  +7.2  +4.4  82  +1  +1    998.6  997.4  +7.2  +8.3  1.8   
11:56 25.03 ЮВ  7
{11} 
16 км  слабый дождь  10/10 930 м  +7.2  +3.9  80  +2  +2    998.5  997.0         
12:37 25.03 ЮВ  16 км  слабый дождь  10/10 870 м  +7.0  +4.0  81  +2  +2      997.0         
12:56 25.03 ЮВ  5
{9} 
16 км  слабый дождь  10/10 870 м  +7.2  +3.9  80  +3  +3    998.6  997.4         
13:46 25.03 ЮЗ  16 км  слабый дождь  10/10 780 м  +7.0  +3.0  76  +2  +2      998.0         
13:56 25.03 ЮЗ  16 км  слабый дождь  10/10 930 м  +6.7  +2.2  73  +2  +2    999.4  998.0      0.3   
14:56 25.03 ЮЗ  16 км  слабый дождь  10/2 1350 м
[средняя] 
+6.1  +1.7  73  +1  +1    1000.3  999.1         
15:56 25.03 Ю  16 км  слабый дождь  8/8 1080 м
[средняя] 
+5.6  +1.1  73  +1  +1    1001.7  1000.4         
16:56 25.03 ЮЗ  16 км    2/2 1200 м  +5.6  -0.6  64  +1  +1    1002.9  1001.4  +5.6  +7.8  0.3   
17:56 25.03 ЮЗ  16 км    8/2 1200 м
[средняя] 
+6.1  -1.1  60  +1  +1    1004.1  1002.8         
18:56 25.03 ЮЗ  16 км    8/2 1350 м
[средняя] 
+5.6  -1.7  59  +1  +1    1005.3  1003.8         
19:56 25.03 ЮЗ  16 км    8/5 1470 м
[средняя] 
+5.6  -1.1  62  +1  +1    1006.2  1004.8         
20:56 25.03 Ю  16 км    8/8 1470 м
[средняя] 
+6.7  -2.8  51  +2  +3    1007.2  1005.8         
21:56 25.03 ЮЗ  4
{9} 
16 км    8/5 1470 м
[средняя] 
+6.1  -3.3  51  +2  +4    1008.0  1006.5         
22:56 25.03 ЮЗ  6
{13} 
16 км    8/5 1470 м
[средняя] 
+6.7  -3.9  47  +3  +3    1009.0  1007.5  +5.6  +6.7     
23:56 25.03 Ю  9
{12} 
16 км    5/5 1500 м  +6.7  -4.4  45  +2  +2    1009.5  1008.2         
00:56 26.03 Ю  6
{9} 
16 км    5/5 1650 м  +6.1  -4.4  47  +2  +3    1010.3  1008.9         
01:56 26.03 ЮЗ  16 км    5/5 1500 м  +6.1  -3.9  49  +2  +2    1011.2  1009.9         
02:56 26.03 ЮВ  16 км    2/2 1650 м  +4.4  -2.2  62  +1  +2    1012.1  1010.6         
03:56 26.03 ЮЗ  16 км    8/8 1650 м
[средняя] 
+4.4  -3.9  55  +1  +1    1012.8  1011.6         
04:56 26.03 ЮЗ  16 км    ясно  +4.4  -3.9  55  +1  +1    1013.9  1012.6  +4.4  +6.7     
05:16 26.03 ЮЗ  6 км  дождь  8/8 240 м  +2.0  -1.0  80  -6  -6      1013.6         
05:23 26.03 Ю  5 км  слабый снег, дымка  10/10 240 м  +2.0  -1.0  80  -4  -4      1013.6         
05:30 26.03 Ю  13 км  слабый снег  10/10 300 м  +2.0  -1.0  80  -3  -3      1013.6         
05:39 26.03 ЮВ  16 км    8/8 300 м  +2.0  -1.0  80  -2  -2      1013.6         
05:48 26.03 ЮВ  16 км    5/5 240 м  +2.0  -1.0  80  -2  -2      1013.6         
05:56 26.03 ЮВ  16 км    2/2 1650 м  +1.7  -0.6  85  -3  -3    1015.2  1013.6         
06:56 26.03 ЮВ  16 км    10/10 1110 м  +2.8  -2.2  70  -1  -1    1016.0  1014.6         
07:56 26.03 Ю  16 км    ясно  +1.7  -1.1  82  -4  -4    1016.4  1015.0         
08:56 26.03 В  16 км    2/2 1500 м  +2.2  -3.3  67  -0  -0    1017.0  1015.6         
09:56 26.03 В  16 км    8/8 1350 м  +2.2  -2.2  73  -2  -2    1017.6  1016.3         
10:56 26.03 В  16 км    10/10 1410 м  +3.3  -3.3  62  0  0    1018.1  1016.6  +1.1  +4.4     
11:56 26.03 В  16 км    8/8 1410 м  +3.3  -2.8  64  0  0    1018.4  1017.0         
12:56 26.03 Ю  16 км    8/8 1470 м  +2.8  -1.7  72  +1  +1    1019.2  1018.0         
13:56 26.03 ЮВ  16 км    8/8 1410 м  +2.8  -1.7  72  -1  -1    1019.8  1018.3         
14:56 26.03 ЮВ  16 км    2/2 1260 м  +2.2  -2.8  69  -2  -2    1020.4  1019.0         
15:56 26.03 ЮВ  16 км    2/2 1200 м  +1.7  -2.8  72  -2  -2    1020.9  1019.4         
16:56 26.03 ЮВ  16 км    ясно  +2.2  -3.3  67  -0  -0    1021.5  1020.0  +1.7  +3.9     
17:56 26.03 ЮВ  16 км    ясно  +3.9  -3.3  59  +1  +2    1021.8  1020.4         
18:56 26.03 Ю  16 км    ясно  +4.4  -2.2  62  -0  +1    1022.2  1020.7         
19:56 26.03 Ю  16 км    2/2 1350 м
[средняя] 
+5.6  -2.2  57  +1  +2    1022.3  1021.0         

 

Местоположение метеостанции Unalaska Airport: широта 53.9000 долгота -166.5333 высота над уровнем моря 7 м.

В архиве по умолчанию представлена погода в Уналашке за последние 1-2 суток. Обновление информации о фактической погоде в базе происходит ежечасно! Архивные данные за месяц целиком и за предыдущие месяцы Вы можете получить, выбрав интересующий диапазон дат из раскрывающегося списка и нажав кнопку "Ввод!".

Внимание! Архив погоды МЕТАР в базе сайта хранится не более 60 дней. Нет смысла пытаться выбрать более раннюю дату.

Внимание! Время в таблицах - всемирное. Для получения местного времени необходимо прибавить поправку, которая в Уналашке равна -9 ч.

Ветер - указаны скорость ветра в м/с и направление, откуда дует ветер: С - северный, СВ - северо-восточный, В - восточный, ЮВ - юго-восточный, Ю - южный, ЮЗ - юго-западный, З - западный, СЗ - северо-западный.
Видимость - горизонтальная дальность видимости в метрах или километрах. При видимости от 1 до 10 км при отсутствии осадков обычно наблюдается дымка, при ухудшении видимости до 1 км и менее - туман. В сухую погоду видимость может ухудшаться дымом, пылью или мглою.
Атмосферные явления - указаны явления, наблюдавшиеся в указанный момент времени.
Облачность - указаны через наклонную черту верхняя и нижняя облачность в баллах и высота нижней границы облаков в метрах. Внимание: облачность, как и прочие метеорологические величины в США измеряются автоматическими метеостанциями. Указанные значения в баллах носят условный характер и показывают процент времени, в течение которого, в среднем, лазерный луч высотомера отражался от облаков обратно.
T - Температура воздуха - температура, измеренная на высоте 2 м над землей.
Td - Температура точки росы - температура, при понижении до которой содержащийся в воздухе водяной пар достигнет насыщения.
f - Относительная влажность воздуха - влажноcть воздуха, измеренная на высоте 2 м над землей.
Te - Эффективная температура - температура, которую ощущает одетый по сезону человек в тени. Характеристика душности погоды. При расчете учитывается влияние влажности воздуха и скорости ветра на теплоощущения человека.
Tes - Эффективная температура на солнце - температура, которую ощущает человек, с поправкой на солнечный нагрев. Характеристика знойности погоды. Зависит от высоты солнца над горизонтом, облачности и скорости ветра. Ночью, в пасмурную погоду, а также при ветре 12 м/с и более поправка равна нулю.
P - Атмосферное давление - приведенное к уровню моря атмосферное давление.
Po - Атмосферное давление - измеренное на уровне метеостанции атмосферное давление.
Tmin - Минимальная температура - минимум температуры воздуха на высоте 2 м над землей.
Tmax - Максимальная температура - максимум температуры воздуха на высоте 2 м над землей.
R - Количество осадков - Количество выпавших осадков за 3 или 6 часов, мм.
SD - Снежный покров - Высота снежного покрова, см.